Year,Month,Day,Hour,Minute,Value (Times are PST for windspeed in km/hr)
2014,12,11,00,00,1.40
2014,12,11,00,01,0.80
2014,12,11,00,02,0.30
2014,12,11,00,03,0.00
2014,12,11,00,04,1.20
2014,12,11,00,05,4.20
2014,12,11,00,06,7.70
2014,12,11,00,07,5.90
2014,12,11,00,08,3.10
2014,12,11,00,09,0.90
2014,12,11,00,10,0.70
2014,12,11,00,11,1.70
2014,12,11,00,12,0.50
2014,12,11,00,13,4.50
2014,12,11,00,14,3.40
2014,12,11,00,15,1.40
2014,12,11,00,16,0.20
2014,12,11,00,17,1.00
2014,12,11,00,18,0.80
2014,12,11,00,19,3.40
2014,12,11,00,20,3.30
2014,12,11,00,21,2.90
2014,12,11,00,22,2.70
2014,12,11,00,23,1.90
2014,12,11,00,24,3.80
2014,12,11,00,25,4.10
2014,12,11,00,26,3.40
2014,12,11,00,27,3.80
2014,12,11,00,28,3.30
2014,12,11,00,29,3.20
2014,12,11,00,30,2.40
2014,12,11,00,31,2.10
2014,12,11,00,32,1.50
2014,12,11,00,33,0.00
2014,12,11,00,34,0.40
2014,12,11,00,35,1.80
2014,12,11,00,36,0.20
2014,12,11,00,37,3.70
2014,12,11,00,38,5.90
2014,12,11,00,39,6.10
2014,12,11,00,40,6.10
2014,12,11,00,41,4.50
2014,12,11,00,42,2.80
2014,12,11,00,43,2.20
2014,12,11,00,44,1.80
2014,12,11,00,45,1.60
2014,12,11,00,46,1.80
2014,12,11,00,47,2.90
2014,12,11,00,48,2.40
2014,12,11,00,49,4.10
2014,12,11,00,50,4.30
2014,12,11,00,51,9.30
2014,12,11,00,52,4.30
2014,12,11,00,53,4.90
2014,12,11,00,54,4.60
2014,12,11,00,55,3.50
2014,12,11,00,56,4.30
2014,12,11,00,57,5.70
2014,12,11,00,58,4.90
2014,12,11,00,59,5.60
2014,12,11,01,00,5.60
2014,12,11,01,01,3.80
2014,12,11,01,02,6.30
2014,12,11,01,03,5.70
2014,12,11,01,04,5.30
2014,12,11,01,05,5.10
2014,12,11,01,06,5.20
2014,12,11,01,07,4.70
2014,12,11,01,08,4.10
2014,12,11,01,09,4.20
2014,12,11,01,10,2.80
2014,12,11,01,11,3.40
2014,12,11,01,12,4.60
2014,12,11,01,13,5.20
2014,12,11,01,14,4.30
2014,12,11,01,15,3.00
2014,12,11,01,16,2.10
2014,12,11,01,17,3.40
2014,12,11,01,18,4.70
2014,12,11,01,19,5.50
2014,12,11,01,20,4.80
2014,12,11,01,21,4.90
2014,12,11,01,22,4.00
2014,12,11,01,23,1.50
2014,12,11,01,24,2.20
2014,12,11,01,25,2.00
2014,12,11,01,26,0.30
2014,12,11,01,27,0.00
2014,12,11,01,28,0.20
2014,12,11,01,29,0.50
2014,12,11,01,30,0.70
2014,12,11,01,31,2.40
2014,12,11,01,32,2.40
2014,12,11,01,33,2.10
2014,12,11,01,34,1.60
2014,12,11,01,35,2.90
2014,12,11,01,36,2.10
2014,12,11,01,37,1.20
2014,12,11,01,38,1.40
2014,12,11,01,39,0.00
2014,12,11,01,40,0.30
2014,12,11,01,41,1.20
2014,12,11,01,42,1.30
2014,12,11,01,43,0.60
2014,12,11,01,44,0.10
2014,12,11,01,45,0.10
2014,12,11,01,46,0.40
2014,12,11,01,47,0.80
2014,12,11,01,48,0.10
2014,12,11,01,49,0.00
2014,12,11,01,50,0.00
2014,12,11,01,51,1.40
2014,12,11,01,52,3.00
2014,12,11,01,53,3.10
2014,12,11,01,54,2.50
2014,12,11,01,55,3.60
2014,12,11,01,56,4.40
2014,12,11,01,57,4.10
2014,12,11,01,58,4.00
2014,12,11,01,59,3.90
2014,12,11,02,00,4.40
2014,12,11,02,01,3.10
2014,12,11,02,02,2.20
2014,12,11,02,03,2.40
2014,12,11,02,04,2.00
2014,12,11,02,05,2.30
2014,12,11,02,06,0.20
2014,12,11,02,07,0.10
2014,12,11,02,08,0.10
2014,12,11,02,09,0.70
2014,12,11,02,10,1.60
2014,12,11,02,11,0.20
2014,12,11,02,12,0.00
2014,12,11,02,13,1.40
2014,12,11,02,14,2.40
2014,12,11,02,15,1.50
2014,12,11,02,16,1.50
2014,12,11,02,17,0.40
2014,12,11,02,18,0.60
2014,12,11,02,19,1.30
2014,12,11,02,20,2.70
2014,12,11,02,21,3.10
2014,12,11,02,22,3.50
2014,12,11,02,23,2.80
2014,12,11,02,24,2.00
2014,12,11,02,25,2.90
2014,12,11,02,26,2.00
2014,12,11,02,27,1.20
2014,12,11,02,28,0.10
2014,12,11,02,29,2.90
2014,12,11,02,30,5.50
2014,12,11,02,31,5.00
2014,12,11,02,32,4.90
2014,12,11,02,33,1.90
2014,12,11,02,34,0.80
2014,12,11,02,35,0.40
2014,12,11,02,36,0.10
2014,12,11,02,37,0.10
2014,12,11,02,38,0.70
2014,12,11,02,39,0.10
2014,12,11,02,40,0.70
2014,12,11,02,41,1.10
2014,12,11,02,42,0.90
2014,12,11,02,43,0.20
2014,12,11,02,44,0.00
2014,12,11,02,45,0.20
2014,12,11,02,46,0.90
2014,12,11,02,47,0.60
2014,12,11,02,48,0.00
2014,12,11,02,49,0.00
2014,12,11,02,50,0.30
2014,12,11,02,51,0.10
2014,12,11,02,52,0.00
2014,12,11,02,53,0.00
2014,12,11,02,54,0.30
2014,12,11,02,55,0.30
2014,12,11,02,56,0.20
2014,12,11,02,57,0.30
2014,12,11,02,58,0.20
2014,12,11,02,59,0.80
2014,12,11,03,00,0.30
2014,12,11,03,01,0.00
2014,12,11,03,02,0.00
2014,12,11,03,03,0.10
2014,12,11,03,04,0.90
2014,12,11,03,05,0.70
2014,12,11,03,06,0.40
2014,12,11,03,07,0.10
2014,12,11,03,08,0.10
2014,12,11,03,09,0.20
2014,12,11,03,10,0.60
2014,12,11,03,11,0.10
2014,12,11,03,12,1.10
2014,12,11,03,13,1.80
2014,12,11,03,14,3.70
2014,12,11,03,15,3.10
2014,12,11,03,16,3.30
2014,12,11,03,17,1.40
2014,12,11,03,18,2.10
2014,12,11,03,19,2.30
2014,12,11,03,20,1.60
2014,12,11,03,21,1.80
2014,12,11,03,22,1.90
2014,12,11,03,23,0.90
2014,12,11,03,24,0.00
2014,12,11,03,25,0.30
2014,12,11,03,26,0.20
2014,12,11,03,27,0.10
2014,12,11,03,28,0.60
2014,12,11,03,29,0.10
2014,12,11,03,30,0.00
2014,12,11,03,31,0.00
2014,12,11,03,32,0.00
2014,12,11,03,33,0.10
2014,12,11,03,34,1.70
2014,12,11,03,35,1.20
2014,12,11,03,36,0.70
2014,12,11,03,37,2.40
2014,12,11,03,38,2.60
2014,12,11,03,39,2.40
2014,12,11,03,40,1.20
2014,12,11,03,41,2.10
2014,12,11,03,42,1.80
2014,12,11,03,43,2.70
2014,12,11,03,44,1.00
2014,12,11,03,45,1.40
2014,12,11,03,46,0.10
2014,12,11,03,47,0.00
2014,12,11,03,48,0.00
2014,12,11,03,49,0.00
2014,12,11,03,50,0.00
2014,12,11,03,51,0.00
2014,12,11,03,52,0.00
2014,12,11,03,53,0.00
2014,12,11,03,54,0.00
2014,12,11,03,55,0.00
2014,12,11,03,56,0.00
2014,12,11,03,57,0.00
2014,12,11,03,58,0.00
2014,12,11,03,59,0.00
2014,12,11,04,00,1.10
2014,12,11,04,01,2.00
2014,12,11,04,02,1.40
2014,12,11,04,03,0.90
2014,12,11,04,04,1.20
2014,12,11,04,05,1.10
2014,12,11,04,06,0.70
2014,12,11,04,07,1.70
2014,12,11,04,08,2.90
2014,12,11,04,09,3.00
2014,12,11,04,10,1.70
2014,12,11,04,11,2.30
2014,12,11,04,12,2.50
2014,12,11,04,13,1.20
2014,12,11,04,14,1.00
2014,12,11,04,15,2.70
2014,12,11,04,16,3.50
2014,12,11,04,17,3.40
2014,12,11,04,18,2.80
2014,12,11,04,19,2.10
2014,12,11,04,20,1.40
2014,12,11,04,21,1.10
2014,12,11,04,22,1.70
2014,12,11,04,23,2.00
2014,12,11,04,24,2.60
2014,12,11,04,25,2.40
2014,12,11,04,26,1.80
2014,12,11,04,27,1.90
2014,12,11,04,28,1.70
2014,12,11,04,29,1.60
2014,12,11,04,30,1.50
2014,12,11,04,31,0.90
2014,12,11,04,32,1.00
2014,12,11,04,33,1.00
2014,12,11,04,34,2.40
2014,12,11,04,35,1.20
2014,12,11,04,36,0.80
2014,12,11,04,37,1.30
2014,12,11,04,38,2.80
2014,12,11,04,39,2.10
2014,12,11,04,40,1.30
2014,12,11,04,41,1.80
2014,12,11,04,42,2.10
2014,12,11,04,43,1.40
2014,12,11,04,44,0.80
2014,12,11,04,45,0.60
2014,12,11,04,46,2.50
2014,12,11,04,47,2.50
2014,12,11,04,48,1.20
2014,12,11,04,49,0.10
2014,12,11,04,50,0.40
2014,12,11,04,51,1.00
2014,12,11,04,52,0.50
2014,12,11,04,53,0.10
2014,12,11,04,54,0.50
2014,12,11,04,55,0.90
2014,12,11,04,56,0.80
2014,12,11,04,57,1.10
2014,12,11,04,58,3.20
2014,12,11,04,59,2.60
2014,12,11,05,00,1.80
2014,12,11,05,01,1.40
2014,12,11,05,02,2.60
2014,12,11,05,03,3.40
2014,12,11,05,04,2.10
2014,12,11,05,05,0.70
2014,12,11,05,06,1.90
2014,12,11,05,07,5.50
2014,12,11,05,08,4.80
2014,12,11,05,09,4.70
2014,12,11,05,10,5.70
2014,12,11,05,11,5.30
2014,12,11,05,12,4.90
2014,12,11,05,13,6.60
2014,12,11,05,14,9.30
2014,12,11,05,15,9.10
2014,12,11,05,16,7.80
2014,12,11,05,17,8.60
2014,12,11,05,18,8.00
2014,12,11,05,19,8.00
2014,12,11,05,20,8.20
2014,12,11,05,21,6.50
2014,12,11,05,22,7.00
2014,12,11,05,23,7.00
2014,12,11,05,24,7.80
2014,12,11,05,25,6.90
2014,12,11,05,26,6.30
2014,12,11,05,27,4.00
2014,12,11,05,28,4.60
2014,12,11,05,29,6.90
2014,12,11,05,30,7.30
2014,12,11,05,31,9.40
2014,12,11,05,32,6.00
2014,12,11,05,33,6.40
2014,12,11,05,34,7.90
2014,12,11,05,35,9.30
2014,12,11,05,36,7.80
2014,12,11,05,37,6.60
2014,12,11,05,38,7.90
2014,12,11,05,39,7.80
2014,12,11,05,40,9.80
2014,12,11,05,41,6.00
2014,12,11,05,42,7.40
2014,12,11,05,43,6.70
2014,12,11,05,44,6.60
2014,12,11,05,45,8.80
2014,12,11,05,46,8.20
2014,12,11,05,47,8.60
2014,12,11,05,48,8.10
2014,12,11,05,49,6.50
2014,12,11,05,50,8.60
2014,12,11,05,51,10.20
2014,12,11,05,52,9.80
2014,12,11,05,53,9.00
2014,12,11,05,54,9.30
2014,12,11,05,55,9.30
2014,12,11,05,56,5.00
2014,12,11,05,57,11.40
2014,12,11,05,58,9.40
2014,12,11,05,59,7.40
2014,12,11,06,00,7.00
2014,12,11,06,01,6.70
2014,12,11,06,02,5.20
2014,12,11,06,03,7.40
2014,12,11,06,04,3.30
2014,12,11,06,05,3.90
2014,12,11,06,06,2.20
2014,12,11,06,07,3.30
2014,12,11,06,08,3.50
2014,12,11,06,09,9.40
2014,12,11,06,10,9.70
2014,12,11,06,11,13.90
2014,12,11,06,12,11.00
2014,12,11,06,13,10.30
2014,12,11,06,14,8.40
2014,12,11,06,15,6.40
2014,12,11,06,16,6.20
2014,12,11,06,17,7.70
2014,12,11,06,18,8.30
2014,12,11,06,19,6.40
2014,12,11,06,20,9.80
2014,12,11,06,21,13.40
2014,12,11,06,22,11.60
2014,12,11,06,23,8.90
2014,12,11,06,24,8.20
2014,12,11,06,25,7.80
2014,12,11,06,26,7.40
2014,12,11,06,27,4.90
2014,12,11,06,28,6.80
2014,12,11,06,29,6.80
2014,12,11,06,30,8.10
2014,12,11,06,31,8.40
2014,12,11,06,32,7.20
2014,12,11,06,33,9.70
2014,12,11,06,34,7.60
2014,12,11,06,35,7.00
2014,12,11,06,36,5.70
2014,12,11,06,37,7.90
2014,12,11,06,38,5.60
2014,12,11,06,39,4.70
2014,12,11,06,40,8.50
2014,12,11,06,41,9.20
2014,12,11,06,42,11.20
2014,12,11,06,43,8.40
2014,12,11,06,44,5.90
2014,12,11,06,45,3.60
2014,12,11,06,46,4.50
2014,12,11,06,47,4.40
2014,12,11,06,48,3.60
2014,12,11,06,49,2.40
2014,12,11,06,50,2.90
2014,12,11,06,51,3.40
2014,12,11,06,52,3.60
2014,12,11,06,53,3.50
2014,12,11,06,54,2.60
2014,12,11,06,55,1.90
2014,12,11,06,56,2.40
2014,12,11,06,57,2.50
2014,12,11,06,58,1.50
2014,12,11,06,59,2.60
2014,12,11,07,00,2.20
2014,12,11,07,01,1.40
2014,12,11,07,02,0.80
2014,12,11,07,03,0.00
2014,12,11,07,04,0.30
2014,12,11,07,05,1.10
2014,12,11,07,06,0.90
2014,12,11,07,07,0.10
2014,12,11,07,08,0.10
2014,12,11,07,09,0.00
2014,12,11,07,10,0.00
2014,12,11,07,11,0.20
2014,12,11,07,12,0.10
2014,12,11,07,13,0.00
2014,12,11,07,14,0.00
2014,12,11,07,15,0.00
2014,12,11,07,16,0.00
2014,12,11,07,17,0.00
2014,12,11,07,18,0.00
2014,12,11,07,19,0.00
2014,12,11,07,20,0.10
2014,12,11,07,21,0.00
2014,12,11,07,22,0.00
2014,12,11,07,23,0.00
2014,12,11,07,24,0.00
2014,12,11,07,25,0.50
2014,12,11,07,26,1.10
2014,12,11,07,27,0.20
2014,12,11,07,28,0.10
2014,12,11,07,29,0.00
2014,12,11,07,30,0.00
2014,12,11,07,31,0.00
2014,12,11,07,32,0.00
2014,12,11,07,33,0.00
2014,12,11,07,34,0.10
2014,12,11,07,35,0.00
2014,12,11,07,36,0.50
2014,12,11,07,37,2.10
2014,12,11,07,38,0.30
2014,12,11,07,39,0.00
2014,12,11,07,40,0.20
2014,12,11,07,41,0.50
2014,12,11,07,42,3.50
2014,12,11,07,43,3.00
2014,12,11,07,44,2.80
2014,12,11,07,45,1.10
2014,12,11,07,46,2.10
2014,12,11,07,47,1.50
2014,12,11,07,48,0.50
2014,12,11,07,49,1.00
2014,12,11,07,50,1.10
2014,12,11,07,51,0.80
2014,12,11,07,52,0.20
2014,12,11,07,53,0.10
2014,12,11,07,54,0.90
2014,12,11,07,55,0.80
2014,12,11,07,56,1.20
2014,12,11,07,57,1.90
2014,12,11,07,58,1.60
2014,12,11,07,59,2.30
2014,12,11,08,00,1.50
2014,12,11,08,01,2.10
2014,12,11,08,02,2.50
2014,12,11,08,03,1.90
2014,12,11,08,04,1.50
2014,12,11,08,05,1.30
2014,12,11,08,06,0.80
2014,12,11,08,07,1.00
2014,12,11,08,08,1.60
2014,12,11,08,09,0.70
2014,12,11,08,10,0.60
2014,12,11,08,11,0.10
2014,12,11,08,12,0.40
2014,12,11,08,13,0.00
2014,12,11,08,14,0.00
2014,12,11,08,15,0.00
2014,12,11,08,16,0.00
2014,12,11,08,17,0.50
2014,12,11,08,18,1.10
2014,12,11,08,19,1.80
2014,12,11,08,20,2.30
2014,12,11,08,21,2.10
2014,12,11,08,22,1.20
2014,12,11,08,23,1.20
2014,12,11,08,24,1.20
2014,12,11,08,25,2.00
2014,12,11,08,26,3.40
2014,12,11,08,27,3.90
2014,12,11,08,28,3.50
2014,12,11,08,29,2.50
2014,12,11,08,30,1.60
2014,12,11,08,31,1.20
2014,12,11,08,32,0.60
2014,12,11,08,33,1.20
2014,12,11,08,34,1.30
2014,12,11,08,35,0.50
2014,12,11,08,36,0.90
2014,12,11,08,37,0.90
2014,12,11,08,38,2.20
2014,12,11,08,39,1.80
2014,12,11,08,40,4.20
2014,12,11,08,41,2.60
2014,12,11,08,42,3.40
2014,12,11,08,43,3.30
2014,12,11,08,44,2.70
2014,12,11,08,45,3.00
2014,12,11,08,46,3.40
2014,12,11,08,47,3.70
2014,12,11,08,48,2.60
2014,12,11,08,49,3.00
2014,12,11,08,50,2.90
2014,12,11,08,51,2.60
2014,12,11,08,52,1.90
2014,12,11,08,53,4.20
2014,12,11,08,54,2.90
2014,12,11,08,55,3.80
2014,12,11,08,56,3.00
2014,12,11,08,57,2.80
2014,12,11,08,58,3.00
2014,12,11,08,59,2.00
2014,12,11,09,00,2.70
2014,12,11,09,01,3.30
2014,12,11,09,02,3.40
2014,12,11,09,03,4.00
2014,12,11,09,04,3.10
2014,12,11,09,05,4.40
2014,12,11,09,06,2.40
2014,12,11,09,07,2.60
2014,12,11,09,08,2.60
2014,12,11,09,09,2.10
2014,12,11,09,10,2.00
2014,12,11,09,11,2.20
2014,12,11,09,12,2.90
2014,12,11,09,13,2.80
2014,12,11,09,14,1.30
2014,12,11,09,15,2.50
2014,12,11,09,16,3.80
2014,12,11,09,17,2.40
2014,12,11,09,18,1.50
2014,12,11,09,19,2.00
2014,12,11,09,20,2.20
2014,12,11,09,21,2.90
2014,12,11,09,22,2.70
2014,12,11,09,23,2.10
2014,12,11,09,24,1.80
2014,12,11,09,25,1.10
2014,12,11,09,26,1.60
2014,12,11,09,27,1.40
2014,12,11,09,28,2.50
2014,12,11,09,29,3.20
2014,12,11,09,30,2.40
2014,12,11,09,31,2.90
2014,12,11,09,32,5.20
2014,12,11,09,33,3.40
2014,12,11,09,34,2.40
2014,12,11,09,35,4.40
2014,12,11,09,36,3.10
2014,12,11,09,37,0.90
2014,12,11,09,38,0.40
2014,12,11,09,39,2.00
2014,12,11,09,40,2.70
2014,12,11,09,41,3.60
2014,12,11,09,42,3.70
2014,12,11,09,43,2.10
2014,12,11,09,44,1.50
2014,12,11,09,45,2.00
2014,12,11,09,46,2.90
2014,12,11,09,47,1.80
2014,12,11,09,48,2.20
2014,12,11,09,49,1.20
2014,12,11,09,50,2.10
2014,12,11,09,51,2.20
2014,12,11,09,52,2.20
2014,12,11,09,53,2.00
2014,12,11,09,54,3.50
2014,12,11,09,55,3.00
2014,12,11,09,56,2.20
2014,12,11,09,57,2.10
2014,12,11,09,58,2.60
2014,12,11,09,59,1.20
2014,12,11,10,00,1.10
2014,12,11,10,01,1.00
2014,12,11,10,02,0.10
2014,12,11,10,03,0.00
2014,12,11,10,04,0.00
2014,12,11,10,05,0.00
2014,12,11,10,06,1.60
2014,12,11,10,07,2.50
2014,12,11,10,08,2.80
2014,12,11,10,09,2.80
2014,12,11,10,10,2.10
2014,12,11,10,11,2.80
2014,12,11,10,12,2.50
2014,12,11,10,13,2.00
2014,12,11,10,14,1.50
2014,12,11,10,15,1.70
2014,12,11,10,16,1.90
2014,12,11,10,17,2.20
2014,12,11,10,18,2.20
2014,12,11,10,19,2.80
2014,12,11,10,20,1.60
2014,12,11,10,21,3.00
2014,12,11,10,22,3.50
2014,12,11,10,23,3.60
2014,12,11,10,24,2.80
2014,12,11,10,25,1.80
2014,12,11,10,26,1.80
2014,12,11,10,27,1.70
2014,12,11,10,28,2.50
2014,12,11,10,29,2.10
2014,12,11,10,30,2.00
2014,12,11,10,31,2.10
2014,12,11,10,32,1.10
2014,12,11,10,33,1.60
2014,12,11,10,34,2.90
2014,12,11,10,35,3.60
2014,12,11,10,36,2.50
2014,12,11,10,37,1.40
2014,12,11,10,38,1.80
2014,12,11,10,39,2.00
2014,12,11,10,40,1.90
2014,12,11,10,41,2.60
2014,12,11,10,42,2.40
2014,12,11,10,43,0.50
2014,12,11,10,44,0.20
2014,12,11,10,45,0.30
2014,12,11,10,46,1.00
2014,12,11,10,47,0.80
2014,12,11,10,48,1.40
2014,12,11,10,49,3.10
2014,12,11,10,50,4.20
2014,12,11,10,51,3.50
2014,12,11,10,52,2.20
2014,12,11,10,53,3.00
2014,12,11,10,54,4.50
2014,12,11,10,55,2.60
2014,12,11,10,56,3.10
2014,12,11,10,57,4.30
2014,12,11,10,58,3.40
2014,12,11,10,59,4.80
2014,12,11,11,00,3.00
2014,12,11,11,01,1.40
2014,12,11,11,02,0.50
2014,12,11,11,03,0.80
2014,12,11,11,04,1.70
2014,12,11,11,05,3.30
2014,12,11,11,06,2.80
2014,12,11,11,07,5.30
2014,12,11,11,08,4.10
2014,12,11,11,09,6.30
2014,12,11,11,10,6.30
2014,12,11,11,11,4.30
2014,12,11,11,12,4.70
2014,12,11,11,13,10.10
2014,12,11,11,14,8.20
2014,12,11,11,15,5.90
2014,12,11,11,16,9.10
2014,12,11,11,17,5.00
2014,12,11,11,18,6.40
2014,12,11,11,19,10.00
2014,12,11,11,20,6.60
2014,12,11,11,21,6.70
2014,12,11,11,22,6.10
2014,12,11,11,23,6.10
2014,12,11,11,24,5.30
2014,12,11,11,25,4.70
2014,12,11,11,26,3.00
2014,12,11,11,27,1.50
2014,12,11,11,28,3.40
2014,12,11,11,29,3.50
2014,12,11,11,30,2.70
2014,12,11,11,31,5.20
2014,12,11,11,32,5.20
2014,12,11,11,33,6.00
2014,12,11,11,34,4.80
2014,12,11,11,35,2.60
2014,12,11,11,36,2.60
2014,12,11,11,37,2.60
2014,12,11,11,38,2.20
2014,12,11,11,39,2.40
2014,12,11,11,40,2.90
2014,12,11,11,41,2.10
2014,12,11,11,42,4.10
2014,12,11,11,43,4.90
2014,12,11,11,44,6.70
2014,12,11,11,45,5.40
2014,12,11,11,46,6.70
2014,12,11,11,47,3.70
2014,12,11,11,48,4.00
2014,12,11,11,49,7.20
2014,12,11,11,50,7.80
2014,12,11,11,51,4.00
2014,12,11,11,52,6.70
2014,12,11,11,53,4.90
2014,12,11,11,54,4.20
2014,12,11,11,55,4.10
2014,12,11,11,56,4.20
2014,12,11,11,57,5.00
2014,12,11,11,58,6.70
2014,12,11,11,59,3.20
2014,12,11,12,00,4.90
2014,12,11,12,01,3.60
2014,12,11,12,02,3.30
2014,12,11,12,03,2.20
2014,12,11,12,04,2.30
2014,12,11,12,05,5.20
2014,12,11,12,06,5.30
2014,12,11,12,07,6.00
2014,12,11,12,08,7.80
2014,12,11,12,09,5.60
2014,12,11,12,10,3.60
2014,12,11,12,11,3.80
2014,12,11,12,12,5.40
2014,12,11,12,13,3.00
2014,12,11,12,14,4.90
2014,12,11,12,15,2.20
2014,12,11,12,16,3.20
2014,12,11,12,17,1.20
2014,12,11,12,18,2.50
2014,12,11,12,19,1.80
2014,12,11,12,20,3.20
2014,12,11,12,21,3.20
2014,12,11,12,22,1.30
2014,12,11,12,23,1.80
2014,12,11,12,24,1.20
2014,12,11,12,25,1.80
2014,12,11,12,26,2.40
2014,12,11,12,27,3.30
2014,12,11,12,28,1.80
2014,12,11,12,29,2.50
2014,12,11,12,30,3.40
2014,12,11,12,31,4.10
2014,12,11,12,32,3.50
2014,12,11,12,33,2.40
2014,12,11,12,34,2.20
2014,12,11,12,35,2.90
2014,12,11,12,36,3.20
2014,12,11,12,37,4.90
2014,12,11,12,38,3.50
2014,12,11,12,39,2.30
2014,12,11,12,40,1.60
2014,12,11,12,41,3.40
2014,12,11,12,42,2.60
2014,12,11,12,43,3.40
2014,12,11,12,44,4.50
2014,12,11,12,45,5.10
2014,12,11,12,46,5.90
2014,12,11,12,47,5.90
2014,12,11,12,48,3.10
2014,12,11,12,49,4.00
2014,12,11,12,50,3.50
2014,12,11,12,51,3.90
2014,12,11,12,52,4.70
2014,12,11,12,53,3.70
2014,12,11,12,54,4.00
2014,12,11,12,55,5.30
2014,12,11,12,56,6.70
2014,12,11,12,57,5.90
2014,12,11,12,58,6.80
2014,12,11,12,59,5.90
2014,12,11,13,00,6.30
2014,12,11,13,01,5.60
2014,12,11,13,02,3.80
2014,12,11,13,03,3.90
2014,12,11,13,04,5.50
2014,12,11,13,05,3.00
2014,12,11,13,06,4.00
2014,12,11,13,07,3.10
2014,12,11,13,08,4.60
2014,12,11,13,09,2.80
2014,12,11,13,10,2.80
2014,12,11,13,11,3.70
2014,12,11,13,12,2.80
2014,12,11,13,13,3.00
2014,12,11,13,14,1.20
2014,12,11,13,15,1.60
2014,12,11,13,16,4.10
2014,12,11,13,17,2.00
2014,12,11,13,18,2.30
2014,12,11,13,19,1.40
2014,12,11,13,20,8.30
2014,12,11,13,21,3.60
2014,12,11,13,22,2.10
2014,12,11,13,23,3.00
2014,12,11,13,24,5.70
2014,12,11,13,25,5.20
2014,12,11,13,26,2.10
2014,12,11,13,27,2.00
2014,12,11,13,28,2.80
2014,12,11,13,29,4.40
2014,12,11,13,30,3.30
2014,12,11,13,31,3.40
2014,12,11,13,32,3.50
2014,12,11,13,33,2.60
2014,12,11,13,34,3.70
2014,12,11,13,35,5.20
2014,12,11,13,36,4.90
2014,12,11,13,37,5.20
2014,12,11,13,38,4.70
2014,12,11,13,39,4.20
2014,12,11,13,40,3.40
2014,12,11,13,41,3.10
2014,12,11,13,42,2.90
2014,12,11,13,43,1.80
2014,12,11,13,44,0.20
2014,12,11,13,45,2.70
2014,12,11,13,46,3.60
2014,12,11,13,47,3.50
2014,12,11,13,48,3.80
2014,12,11,13,49,1.90
2014,12,11,13,50,2.90
2014,12,11,13,51,0.80
2014,12,11,13,52,1.00
2014,12,11,13,53,0.60
2014,12,11,13,54,2.00
2014,12,11,13,55,2.50
2014,12,11,13,56,1.50
2014,12,11,13,57,1.70
2014,12,11,13,58,3.40
2014,12,11,13,59,1.80
2014,12,11,14,00,1.00
2014,12,11,14,01,1.60
2014,12,11,14,02,0.20
2014,12,11,14,03,0.10
2014,12,11,14,04,0.00
2014,12,11,14,05,0.10
2014,12,11,14,06,1.10
2014,12,11,14,07,1.40
2014,12,11,14,08,1.90
2014,12,11,14,09,2.10
2014,12,11,14,10,2.30
2014,12,11,14,11,1.20
2014,12,11,14,12,1.80
2014,12,11,14,13,1.40
2014,12,11,14,14,1.40
2014,12,11,14,15,1.50
2014,12,11,14,16,1.60
2014,12,11,14,17,2.50
2014,12,11,14,18,1.20
2014,12,11,14,19,1.10
2014,12,11,14,20,0.60
2014,12,11,14,21,0.70
2014,12,11,14,22,0.00
2014,12,11,14,23,0.00
2014,12,11,14,24,0.00
2014,12,11,14,25,0.10
2014,12,11,14,26,0.10
2014,12,11,14,27,0.00
2014,12,11,14,28,0.10
2014,12,11,14,29,0.00
2014,12,11,14,30,1.10
2014,12,11,14,31,1.90
2014,12,11,14,32,1.50
2014,12,11,14,33,0.30
2014,12,11,14,34,1.30
2014,12,11,14,35,0.90
2014,12,11,14,36,0.40
2014,12,11,14,37,1.20
2014,12,11,14,38,2.10
2014,12,11,14,39,0.40
2014,12,11,14,40,1.00
2014,12,11,14,41,2.00
2014,12,11,14,42,2.50
2014,12,11,14,43,1.90
2014,12,11,14,44,2.00
2014,12,11,14,45,1.70
2014,12,11,14,46,3.00
2014,12,11,14,47,2.70
2014,12,11,14,48,3.00
2014,12,11,14,49,4.10
2014,12,11,14,50,3.30
2014,12,11,14,51,2.00
2014,12,11,14,52,2.30
2014,12,11,14,53,1.20
2014,12,11,14,54,1.50
2014,12,11,14,55,1.90
2014,12,11,14,56,2.90
2014,12,11,14,57,2.00
2014,12,11,14,58,3.50
2014,12,11,14,59,4.20
2014,12,11,15,00,3.60
2014,12,11,15,01,3.70
2014,12,11,15,02,3.20
2014,12,11,15,03,3.00
2014,12,11,15,04,2.80
2014,12,11,15,05,2.40
2014,12,11,15,06,1.80
2014,12,11,15,07,1.10
2014,12,11,15,08,1.30
2014,12,11,15,09,1.60
2014,12,11,15,10,2.60
2014,12,11,15,11,2.40
2014,12,11,15,12,1.70
2014,12,11,15,13,2.20
2014,12,11,15,14,2.30
2014,12,11,15,15,2.90
2014,12,11,15,16,2.30
2014,12,11,15,17,2.70
2014,12,11,15,18,2.80
2014,12,11,15,19,2.40
2014,12,11,15,20,3.00
2014,12,11,15,21,2.70
2014,12,11,15,22,1.60
2014,12,11,15,23,2.20
2014,12,11,15,24,1.40
2014,12,11,15,25,2.90
2014,12,11,15,26,3.30
2014,12,11,15,27,2.20
2014,12,11,15,28,2.50
2014,12,11,15,29,2.80
2014,12,11,15,30,2.40
2014,12,11,15,31,2.10
2014,12,11,15,32,1.90
2014,12,11,15,33,2.20
2014,12,11,15,34,2.00
2014,12,11,15,35,1.60
2014,12,11,15,36,1.80
2014,12,11,15,37,0.80
2014,12,11,15,38,0.30
2014,12,11,15,39,0.20
2014,12,11,15,40,0.60
2014,12,11,15,41,2.10
2014,12,11,15,42,2.30
2014,12,11,15,43,1.60
2014,12,11,15,44,1.30
2014,12,11,15,45,1.60
2014,12,11,15,46,3.20
2014,12,11,15,47,2.50
2014,12,11,15,48,2.20
2014,12,11,15,49,2.40
2014,12,11,15,50,3.70
2014,12,11,15,51,3.30
2014,12,11,15,52,2.80
2014,12,11,15,53,2.10
2014,12,11,15,54,2.60
2014,12,11,15,55,2.20
2014,12,11,15,56,2.80
2014,12,11,15,57,2.60
2014,12,11,15,58,3.00
2014,12,11,15,59,4.20
2014,12,11,16,00,3.60
2014,12,11,16,01,3.00
2014,12,11,16,02,2.60
2014,12,11,16,03,2.30
2014,12,11,16,04,3.20
2014,12,11,16,05,2.40
2014,12,11,16,06,2.10
2014,12,11,16,07,2.10
2014,12,11,16,08,3.20
2014,12,11,16,09,2.60
2014,12,11,16,10,1.60
2014,12,11,16,11,2.90
2014,12,11,16,12,2.80
2014,12,11,16,13,1.60
2014,12,11,16,14,1.30
2014,12,11,16,15,1.20
2014,12,11,16,16,0.90
2014,12,11,16,17,0.50
2014,12,11,16,18,1.40
2014,12,11,16,19,1.90
2014,12,11,16,20,1.50
2014,12,11,16,21,1.50
2014,12,11,16,22,0.20
2014,12,11,16,23,0.20
2014,12,11,16,24,1.30
2014,12,11,16,25,1.20
2014,12,11,16,26,1.00
2014,12,11,16,27,2.10
2014,12,11,16,28,2.50
2014,12,11,16,29,2.10
2014,12,11,16,30,2.40
2014,12,11,16,31,1.60
2014,12,11,16,32,1.30
2014,12,11,16,33,1.50
2014,12,11,16,34,2.40
2014,12,11,16,35,2.80
2014,12,11,16,36,2.20
2014,12,11,16,37,1.80
2014,12,11,16,38,2.40
2014,12,11,16,39,3.60
2014,12,11,16,40,3.20
2014,12,11,16,41,3.20
2014,12,11,16,42,4.00
2014,12,11,16,43,3.70
2014,12,11,16,44,2.90
2014,12,11,16,45,2.80
2014,12,11,16,46,2.70
2014,12,11,16,47,2.90
2014,12,11,16,48,2.90
2014,12,11,16,49,1.90
2014,12,11,16,50,4.30
2014,12,11,16,51,2.90
2014,12,11,16,52,2.40
2014,12,11,16,53,1.80
2014,12,11,16,54,1.90
2014,12,11,16,55,1.70
2014,12,11,16,56,2.50
2014,12,11,16,57,2.30
2014,12,11,16,58,2.50
2014,12,11,16,59,3.30
2014,12,11,17,00,3.50
2014,12,11,17,01,4.10
2014,12,11,17,02,3.00
2014,12,11,17,03,2.80
2014,12,11,17,04,2.00
2014,12,11,17,05,1.60
2014,12,11,17,06,1.70
2014,12,11,17,07,1.60
2014,12,11,17,08,1.30
2014,12,11,17,09,0.80
2014,12,11,17,10,3.20
2014,12,11,17,11,3.70
2014,12,11,17,12,2.70
2014,12,11,17,13,1.60
2014,12,11,17,14,0.20
2014,12,11,17,15,0.00
2014,12,11,17,16,0.00
2014,12,11,17,17,0.00
2014,12,11,17,18,0.20
2014,12,11,17,19,0.80
2014,12,11,17,20,1.10
2014,12,11,17,21,1.60
2014,12,11,17,22,1.70
2014,12,11,17,23,1.50
2014,12,11,17,24,0.50
2014,12,11,17,25,1.20
2014,12,11,17,26,1.20
2014,12,11,17,27,1.20
2014,12,11,17,28,1.30
2014,12,11,17,29,1.90
2014,12,11,17,30,1.50
2014,12,11,17,31,1.10
2014,12,11,17,32,0.90
2014,12,11,17,33,0.20
2014,12,11,17,34,0.00
2014,12,11,17,35,0.40
2014,12,11,17,36,2.70
2014,12,11,17,37,1.50
2014,12,11,17,38,1.70
2014,12,11,17,39,1.50
2014,12,11,17,40,1.20
2014,12,11,17,41,0.00
2014,12,11,17,42,0.30
2014,12,11,17,43,0.10
2014,12,11,17,44,0.00
2014,12,11,17,45,0.00
2014,12,11,17,46,0.80
2014,12,11,17,47,0.60
2014,12,11,17,48,1.00
2014,12,11,17,49,1.10
2014,12,11,17,50,0.60
2014,12,11,17,51,0.20
2014,12,11,17,52,0.00
2014,12,11,17,53,0.00
2014,12,11,17,54,0.00
2014,12,11,17,55,0.40
2014,12,11,17,56,0.30
2014,12,11,17,57,1.20
2014,12,11,17,58,2.30
2014,12,11,17,59,0.90
2014,12,11,18,00,2.30
2014,12,11,18,01,2.30
2014,12,11,18,02,2.40
2014,12,11,18,03,2.20
2014,12,11,18,04,3.00
2014,12,11,18,05,3.90
2014,12,11,18,06,2.40